| time (UTC) | temp C | wind direction | speed KPH | gust KPH | rain 1hr cm | rain 24hr cm | rain mn cm | humidity % | barometer mb |
| 20260508041536 | 23 | 124 | 6.4 | 16.1 | 0.00 | 0.00 | 0.00 | 81 | 1011.5 |
| 20260508040041 | 23 | 86 | 6.4 | 19.3 | 0.00 | 0.00 | 0.00 | 81 | 1012.1 |
| 20260508034535 | 23 | 90 | 9.7 | 19.3 | 0.00 | 0.00 | 0.00 | 81 | 1012.2 |
| 20260508033034 | 23 | 67 | 4.8 | 12.9 | 0.00 | 0.00 | 0.00 | 81 | 1012.1 |
| 20260508031532 | 24 | 97 | 8.0 | 17.7 | 0.00 | 0.00 | 0.00 | 80 | 1011.9 |
| 20260508030033 | 24 | 75 | 6.4 | 17.7 | 0.00 | 0.00 | 0.00 | 79 | 1011.7 |
| 20260508024531 | 24 | 90 | 9.7 | 16.1 | 0.00 | 0.00 | 0.00 | 78 | 1011.7 |
| 20260508023031 | 24 | 78 | 6.4 | 14.5 | 0.00 | 0.00 | 0.00 | 78 | 1011.7 |
| 20260508021530 | 24 | 73 | 9.7 | 16.1 | 0.00 | 0.00 | 0.00 | 78 | 1011.9 |
| 20260508020030 | 24 | 79 | 4.8 | 17.7 | 0.00 | 0.00 | 0.00 | 78 | 1011.4 |
| 20260508014531 | 24 | 66 | 3.2 | 16.1 | 0.00 | 0.00 | 0.00 | 78 | 1011.8 |
| 20260508013029 | 24 | 76 | 4.8 | 16.1 | 0.00 | 0.00 | 0.00 | 78 | 1011.7 |
| 20260508011535 | 24 | 39 | 4.8 | 12.9 | 0.00 | 0.00 | 0.00 | 79 | 1011.4 |
| 20260508010032 | 24 | 69 | 6.4 | 16.1 | 0.00 | 0.00 | 0.00 | 78 | 1011.3 |
| 20260508004537 | 24 | 73 | 6.4 | 16.1 | 0.00 | 0.00 | 0.00 | 78 | 1011.2 |
| 20260508003027 | 25 | 63 | 3.2 | 14.5 | 0.00 | 0.00 | 0.00 | 78 | 1011.1 |
| 20260508001529 | 25 | 71 | 3.2 | 17.7 | 0.00 | 0.00 | 0.00 | 78 | 1011.3 |
| 20260508000026 | 25 | 23 | 4.8 | 17.7 | 0.00 | 0.00 | 0.00 | 77 | 1011.3 |
| 20260507234532 | 25 | 51 | 11.3 | 17.7 | 0.00 | 0.00 | 0.00 | 77 | 1011.0 |
| 20260507233033 | 25 | 59 | 12.9 | 19.3 | 0.00 | 0.00 | 0.00 | 77 | 1011.0 |
| 20260507231525 | 25 | 83 | 4.8 | 17.7 | 0.00 | 0.00 | 0.00 | 77 | 1011.1 |
| 20260507230025 | 25 | 99 | 1.6 | 16.1 | 0.00 | 0.00 | 0.00 | 77 | 1011.2 |
| 20260507224525 | 25 | 81 | 11.3 | 20.9 | 0.00 | 0.00 | 0.00 | 77 | 1011.2 |
| 20260507223024 | 25 | 71 | 12.9 | 20.9 | 0.00 | 0.00 | 0.00 | 76 | 1011.1 |
| 20260507221522 | 25 | 84 | 11.3 | 16.1 | 0.00 | 0.00 | 0.00 | 77 | 1011.1 |
| 20260507220021 | 25 | 76 | 6.4 | 20.9 | 0.00 | 0.00 | 0.00 | 76 | 1011.2 |
| 20260507214526 | 25 | 66 | 9.7 | 19.3 | 0.00 | 0.00 | 0.00 | 77 | 1011.0 |
| 20260507213022 | 25 | 83 | 4.8 | 25.7 | 0.00 | 0.00 | 0.00 | 76 | 1011.2 |
| 20260507211523 | 25 | 90 | 8.0 | 20.9 | 0.00 | 0.00 | 0.00 | 75 | 1011.4 |
| 20260507210021 | 25 | 119 | 11.3 | 24.1 | 0.00 | 0.00 | 0.00 | 76 | 1011.5 |
| 20260507204519 | 25 | 69 | 8.0 | 16.1 | 0.00 | 0.00 | 0.00 | 76 | 1011.9 |
| 20260507203017 | 25 | 2 | 3.2 | 14.5 | 0.00 | 0.00 | 0.00 | 77 | 1011.9 |
| 20260507201516 | 24 | 13 | 3.2 | 11.3 | 0.00 | 0.00 | 0.00 | 77 | 1012.1 |
| 20260507200008 | 24 | 346 | 3.2 | 14.5 | 0.00 | 0.00 | 0.00 | 78 | 1012.3 |
| 20260507194506 | 23 | 31 | 4.8 | 16.1 | 0.00 | 0.00 | 0.00 | 77 | 1012.5 |
| 20260507193005 | 23 | 30 | 3.2 | 16.1 | 0.00 | 0.00 | 0.00 | 79 | 1012.6 |
| 20260507191508 | 22 | 20 | 6.4 | 19.3 | 0.00 | 0.00 | 0.00 | 79 | 1012.8 |
| 20260507190005 | 22 | 329 | 3.2 | 16.1 | 0.00 | 0.00 | 0.00 | 80 | 1012.8 |
| 20260507184504 | 22 | 340 | 4.8 | 14.5 | 0.00 | 0.00 | 0.00 | 80 | 1013.1 |
| 20260507183005 | 21 | 76 | 6.4 | 14.5 | 0.00 | 0.00 | 0.00 | 80 | 1013.2 |
| 20260507181504 | 21 | 347 | 6.4 | 16.1 | 0.00 | 0.00 | 0.00 | 80 | 1013.4 |
| 20260507180003 | 21 | 342 | 11.3 | 17.7 | 0.00 | 0.00 | 0.00 | 80 | 1013.4 |
| 20260507174636 | 21 | 20 | 4.8 | 17.7 | 0.00 | 0.00 | 0.00 | 81 | 1013.6 |
| 20260507173059 | 20 | 277 | 4.8 | 16.1 | 0.00 | 0.00 | 0.00 | 82 | 1013.7 |
| 20260507171610 | 20 | 90 | 4.8 | 16.1 | 0.00 | 0.00 | 0.00 | 83 | 1013.9 |
| 20260507170057 | 19 | 16 | 4.8 | 12.9 | 0.00 | 0.00 | 0.00 | 83 | 1013.6 |
| 20260507164556 | 18 | 42 | 6.4 | 17.7 | 0.00 | 0.00 | 0.00 | 84 | 1013.7 |
| 20260507163054 | 18 | 2 | 4.8 | 16.1 | 0.00 | 0.00 | 0.00 | 85 | 1013.9 |
| 20260507161553 | 18 | 333 | 8.0 | 16.1 | 0.00 | 0.00 | 0.00 | 85 | 1013.7 |
| 20260507160111 | 18 | 306 | 6.4 | 20.9 | 0.00 | 0.00 | 0.00 | 85 | 1013.7 |
| 20260507154548 | 18 | 29 | 9.7 | 17.7 | 0.00 | 0.00 | 0.00 | 85 | 1013.9 |
| 20260507153046 | 18 | 9 | 8.0 | 19.3 | 0.00 | 0.00 | 0.00 | 85 | 1013.9 |
| 20260507151548 | 18 | 102 | 4.8 | 14.5 | 0.00 | 0.00 | 0.00 | 86 | 1013.8 |
| 20260507150045 | 18 | 25 | 6.4 | 19.3 | 0.00 | 0.00 | 0.00 | 86 | 1013.7 |
| 20260507144544 | 18 | 334 | 9.7 | 22.5 | 0.00 | 0.00 | 0.00 | 85 | 1013.7 |
| 20260507143041 | 18 | 30 | 11.3 | 27.4 | 0.00 | 0.00 | 0.00 | 86 | 1013.4 |
| 20260507141540 | 18 | 6 | 6.4 | 17.7 | 0.00 | 0.00 | 0.00 | 86 | 1013.4 |
| 20260507140046 | 18 | 59 | 6.4 | 17.7 | 0.00 | 0.00 | 0.00 | 86 | 1013.3 |
| 20260507134536 | 18 | 332 | 11.3 | 22.5 | 0.00 | 0.00 | 0.00 | 86 | 1013.7 |
| 20260507133035 | 18 | 38 | 3.2 | 19.3 | 0.00 | 0.00 | 0.00 | 86 | 1013.9 |
| 20260507131600 | 18 | 20 | 8.0 | 16.1 | 0.00 | 0.00 | 0.00 | 86 | 1013.5 |
| 20260507130027 | 18 | 26 | 8.0 | 19.3 | 0.00 | 0.00 | 0.00 | 86 | 1013.3 |
| 20260507124524 | 19 | 315 | 4.8 | 19.3 | 0.00 | 0.00 | 0.00 | 86 | 1012.9 |
| 20260507123027 | 19 | 321 | 4.8 | 17.7 | 0.00 | 0.00 | 0.00 | 86 | 1012.6 |
| 20260507121519 | 19 | 13 | 4.8 | 12.9 | 0.00 | 0.00 | 0.00 | 86 | 1012.4 |
| 20260507120028 | 20 | 49 | 1.6 | 11.3 | 0.00 | 0.00 | 0.00 | 87 | 1012.1 |
| 20260507114514 | 20 | 14 | 1.6 | 9.7 | 0.00 | 0.00 | 0.00 | 87 | 1012.0 |
| 20260507113026 | 20 | 357 | 1.6 | 12.9 | 0.00 | 0.00 | 0.00 | 87 | 1011.5 |
| 20260507111513 | 20 | 350 | 4.8 | 16.1 | 0.00 | 0.00 | 0.00 | 87 | 1011.3 |
| 20260507110009 | 20 | 19 | 4.8 | 14.5 | 0.00 | 0.00 | 0.00 | 87 | 1011.5 |
| 20260507104509 | 20 | 358 | 3.2 | 14.5 | 0.00 | 0.00 | 0.00 | 87 | 1011.3 |
| 20260507103005 | 20 | 31 | 6.4 | 19.3 | 0.00 | 0.00 | 0.00 | 87 | 1011.2 |
| 20260507101503 | 20 | 37 | 6.4 | 19.3 | 0.00 | 0.00 | 0.00 | 87 | 1011.0 |
| 20260507100000 | 20 | 29 | 6.4 | 19.3 | 0.00 | 0.00 | 0.00 | 86 | 1010.8 |
| 20260507094620 | 20 | 336 | 4.8 | 20.9 | 0.00 | 0.00 | 0.00 | 86 | 1010.7 |
| 20260507093057 | 21 | 336 | 6.4 | 19.3 | 0.00 | 0.00 | 0.00 | 86 | 1010.7 |
| 20260507091554 | 21 | 10 | 6.4 | 17.7 | 0.00 | 0.00 | 0.00 | 86 | 1010.8 |
| 20260507090052 | 21 | 27 | 11.3 | 24.1 | 0.00 | 0.00 | 0.00 | 86 | 1010.5 |
| 20260507084558 | 21 | 30 | 6.4 | 27.4 | 0.00 | 0.00 | 0.00 | 86 | 1010.3 |
| 20260507083048 | 21 | 319 | 6.4 | 19.3 | 0.00 | 0.00 | 0.00 | 86 | 1010.2 |
| 20260507081546 | 21 | 55 | 9.7 | 19.3 | 0.00 | 0.00 | 0.00 | 86 | 1010.3 |
| 20260507080047 | 22 | 43 | 8.0 | 16.1 | 0.00 | 0.00 | 0.00 | 86 | 1010.3 |
| 20260507074546 | 22 | 36 | 9.7 | 20.9 | 0.00 | 0.00 | 0.00 | 86 | 1010.4 |
| 20260507073042 | 22 | 29 | 4.8 | 17.7 | 0.00 | 0.00 | 0.00 | 86 | 1010.5 |
| 20260507071543 | 22 | 348 | 8.0 | 20.9 | 0.00 | 0.00 | 0.00 | 85 | 1010.5 |
| 20260507070047 | 22 | 334 | 8.0 | 19.3 | 0.00 | 0.00 | 0.00 | 85 | 1010.6 |
| 20260507064544 | 22 | 306 | 6.4 | 19.3 | 0.00 | 0.00 | 0.00 | 86 | 1010.5 |
| 20260507063033 | 22 | 13 | 9.7 | 17.7 | 0.00 | 0.00 | 0.00 | 86 | 1010.5 |
| 20260507061535 | 23 | 11 | 9.7 | 19.3 | 0.00 | 0.00 | 0.00 | 86 | 1010.4 |
| 20260507060036 | 23 | 34 | 6.4 | 17.7 | 0.00 | 0.00 | 0.00 | 86 | 1010.2 |
| 20260507054537 | 23 | 19 | 9.7 | 19.3 | 0.00 | 0.00 | 0.00 | 86 | 1010.1 |
| 20260507053026 | 23 | 12 | 4.8 | 17.7 | 0.00 | 0.00 | 0.00 | 87 | 1010.2 |
| 20260507051521 | 23 | 19 | 8.0 | 19.3 | 0.00 | 0.00 | 0.00 | 88 | 1010.1 |
| 20260507050036 | 23 | 331 | 4.8 | 17.7 | 0.00 | 0.00 | 0.00 | 87 | 1010.3 |
| 20260507044522 | 24 | 323 | 6.4 | 16.1 | 0.00 | 0.00 | 0.00 | 87 | 1010.2 |
| 20260507043013 | 24 | 319 | 9.7 | 24.1 | 0.00 | 0.00 | 0.00 | 87 | 1010.3 |